• In Hungary
  • List of Countries
  • For 7 days
  • Water Temperature
  • Satellite Maps
  • Weather Map
  • News
  • Weather Widgets
  • user-avatar
    Login

    Hourly Weather Langen

    Today, 23 November, Thursday

    Time Temperature Precipitation Wind Pressure Humidity
    00:00 +7°C° 0 mm 2 mps 744 mmHg 79%
    01:00 +7°C° 0 mm 2 mps 744 mmHg 78%
    02:00 +7°C° 0 mm 3 mps 744 mmHg 78%
    03:00 +7°C° 0 mm 3 mps 743 mmHg 78%
    04:00 +7°C° 0 mm 3 mps 743 mmHg 78%
    05:00 +7°C° 0 mm 3 mps 743 mmHg 78%
    06:00 +7°C° 0 mm 3 mps 743 mmHg 79%
    07:00 +7°C° 0 mm 3 mps 743 mmHg 79%
    08:00 +7°C° 0 mm 4 mps 743 mmHg 76%
    09:00 +8°C° 0 mm 4 mps 743 mmHg 73%
    10:00 +10°C° 0 mm 4 mps 744 mmHg 69%
    11:00 +10°C° 0 mm 5 mps 744 mmHg 66%
    12:00 +13°C° 0 mm 5 mps 744 mmHg 63%
    13:00 +14°C° 0 mm 6 mps 744 mmHg 59%
    14:00 +14°C° 0 mm 5 mps 744 mmHg 63%
    15:00 +13°C° 0 mm 5 mps 744 mmHg 66%
    16:00 +13°C° 0 mm 4 mps 744 mmHg 69%
    17:00 +13°C° 0 mm 4 mps 745 mmHg 71%
    18:00 +12°C° 0 mm 4 mps 745 mmHg 73%
    19:00 +12°C° 0 mm 4 mps 746 mmHg 75%
    20:00 +12°C° 0.1 mm 4 mps 746 mmHg 77%
    21:00 +12°C° 0.1 mm 4 mps 747 mmHg 79%
    22:00 +11°C° 0.1 mm 4 mps 747 mmHg 81%
    23:00 +11°C° 0 mm 4 mps 747 mmHg 82%

    Tomorrow, 24 November, Friday

    Time Temperature Precipitation Wind Pressure Humidity
    00:00 +11°C° 0 mm 4 mps 747 mmHg 83%
    01:00 +10°C° 0 mm 3 mps 747 mmHg 84%
    02:00 +10°C° 0 mm 3 mps 747 mmHg 83%
    03:00 +10°C° 0 mm 3 mps 747 mmHg 83%
    04:00 +10°C° 0 mm 3 mps 746 mmHg 82%
    05:00 +10°C° 0 mm 4 mps 746 mmHg 82%
    06:00 +10°C° 0 mm 4 mps 746 mmHg 82%
    07:00 +10°C° 0 mm 4 mps 745 mmHg 82%
    08:00 +10°C° 0.4 mm 4 mps 745 mmHg 80%
    09:00 +10°C° 0.4 mm 4 mps 745 mmHg 79%
    10:00 +11°C° 0.4 mm 4 mps 746 mmHg 77%
    11:00 +11°C° 0.4 mm 4 mps 745 mmHg 77%
    12:00 +12°C° 0.4 mm 4 mps 745 mmHg 76%
    13:00 +12°C° 0.4 mm 4 mps 745 mmHg 76%
    14:00 +12°C° 0.1 mm 4 mps 745 mmHg 77%
    15:00 +12°C° 0.1 mm 4 mps 746 mmHg 78%
    16:00 +12°C° 0.1 mm 4 mps 746 mmHg 80%
    17:00 +11°C° 0.1 mm 4 mps 747 mmHg 81%
    18:00 +11°C° 0.1 mm 4 mps 747 mmHg 82%
    19:00 +10°C° 0.1 mm 4 mps 748 mmHg 83%
    20:00 +9°C° 0.1 mm 3 mps 748 mmHg 83%
    21:00 +8°C° 0.1 mm 2 mps 749 mmHg 82%
    22:00 +9°C° 0.1 mm 1 mps 749 mmHg 82%
    23:00 +8°C° 0.3 mm 1 mps 749 mmHg 82%

    Day after tomorrow, 25 November, Saturday

    Time Temperature Precipitation Wind Pressure Humidity
    00:00 +8°C° 0.3 mm 1 mps 749 mmHg 83%
    01:00 +8°C° 0.3 mm 1 mps 748 mmHg 84%
    02:00 +7°C° 1 mm 1 mps 748 mmHg 85%
    03:00 +7°C° 1 mm 1 mps 748 mmHg 87%
    04:00 +7°C° 1 mm 1 mps 747 mmHg 88%
    05:00 +7°C° 0.9 mm 1 mps 747 mmHg 88%
    06:00 +7°C° 0.9 mm 1 mps 747 mmHg 89%
    07:00 +6°C° 0.9 mm 1 mps 747 mmHg 89%
    08:00 +7°C° 0.4 mm 1 mps 747 mmHg 88%
    09:00 +7°C° 0.4 mm 1 mps 746 mmHg 87%
    10:00 +7°C° 0.4 mm 1 mps 746 mmHg 86%
    11:00 +7°C° 0.2 mm 1 mps 747 mmHg 83%
    12:00 +7°C° 0.2 mm 1 mps 747 mmHg 80%
    13:00 +8°C° 0.2 mm 1 mps 747 mmHg 77%
    14:00 +8°C° 0.3 mm 1 mps 747 mmHg 79%
    15:00 +7°C° 0.3 mm 1 mps 747 mmHg 81%
    16:00 +6°C° 0.3 mm 0 mps 747 mmHg 82%
    17:00 +7°C° 1.4 mm 1 mps 747 mmHg 84%
    18:00 +5°C° 1.4 mm 2 mps 747 mmHg 85%
    19:00 +5°C° 1.4 mm 2 mps 748 mmHg 86%
    20:00 +4°C° 0.8 mm 3 mps 749 mmHg 83%
    21:00 +3°C° 0.8 mm 4 mps 750 mmHg 81%
    22:00 +2°C° 0.8 mm 5 mps 751 mmHg 78%
    23:00 +2°C° 0.1 mm 5 mps 752 mmHg 79%

    26 November, Sunday

    Time Temperature Precipitation Wind Pressure Humidity
    00:00 +1°C° 0.1 mm 4 mps 752 mmHg 80%
    01:00 +1°C° 0.1 mm 4 mps 753 mmHg 81%
    02:00 0°C° 0 mm 4 mps 754 mmHg 82%
    03:00 0°C° 0 mm 4 mps 754 mmHg 83%
    04:00 -1°C° 0 mm 4 mps 754 mmHg 84%
    05:00 0°C° 0 mm 3 mps 754 mmHg 84%
    06:00 0°C° 0 mm 3 mps 755 mmHg 85%
    07:00 0°C° 0 mm 3 mps 755 mmHg 86%
    08:00 0°C° 0 mm 3 mps 755 mmHg 84%
    09:00 0°C° 0 mm 4 mps 755 mmHg 83%
    10:00 0°C° 0 mm 4 mps 755 mmHg 81%
    11:00 +1°C° 0 mm 4 mps 755 mmHg 78%
    12:00 +1°C° 0 mm 4 mps 755 mmHg 75%
    13:00 +2°C° 0 mm 5 mps 755 mmHg 72%
    14:00 +3°C° 0 mm 4 mps 755 mmHg 73%
    15:00 +3°C° 0 mm 4 mps 755 mmHg 74%
    16:00 +1°C° 0 mm 4 mps 756 mmHg 74%
    17:00 +1°C° 0 mm 4 mps 756 mmHg 76%
    18:00 +1°C° 0 mm 4 mps 756 mmHg 79%
    19:00 +1°C° 0 mm 3 mps 756 mmHg 81%
    20:00 +1°C° 0 mm 3 mps 756 mmHg 83%
    21:00 +1°C° 0 mm 3 mps 756 mmHg 85%
    22:00 +1°C° 0 mm 3 mps 756 mmHg 87%
    23:00 +1°C° 0 mm 3 mps 756 mmHg 87%

    27 November, Monday

    Time Temperature Precipitation Wind Pressure Humidity
    00:00 0°C° 0 mm 3 mps 756 mmHg 88%
    01:00 0°C° 0 mm 3 mps 756 mmHg 89%
    02:00 0°C° 0 mm 3 mps 756 mmHg 89%
    03:00 0°C° 0 mm 3 mps 756 mmHg 89%
    04:00 0°C° 0 mm 3 mps 756 mmHg 90%
    05:00 0°C° 0 mm 3 mps 756 mmHg 90%
    06:00 0°C° 0 mm 3 mps 756 mmHg 89%
    07:00 +1°C° 0 mm 3 mps 756 mmHg 89%
    08:00 0°C° 0 mm 4 mps 756 mmHg 88%
    09:00 0°C° 0 mm 4 mps 756 mmHg 86%
    10:00 +1°C° 0 mm 4 mps 756 mmHg 84%
    11:00 +1°C° 0 mm 4 mps 755 mmHg 82%
    12:00 +3°C° 0 mm 4 mps 755 mmHg 79%
    13:00 +2°C° 0 mm 5 mps 755 mmHg 77%
    14:00 +2°C° 0 mm 5 mps 754 mmHg 78%
    15:00 +2°C° 0 mm 5 mps 753 mmHg 78%
    16:00 +2°C° 0 mm 5 mps 753 mmHg 79%
    17:00 +2°C° 0.2 mm 5 mps 752 mmHg 80%
    18:00 +2°C° 0.2 mm 5 mps 752 mmHg 81%
    19:00 +2°C° 0.2 mm 6 mps 751 mmHg 82%
    20:00 +2°C° 0.5 mm 6 mps 751 mmHg 82%
    21:00 +2°C° 0.5 mm 6 mps 750 mmHg 82%
    22:00 +2°C° 0.5 mm 6 mps 750 mmHg 82%
    23:00 +2°C° 0.2 mm 6 mps 750 mmHg 83%

    28 November, Tuesday

    Time Temperature Precipitation Wind Pressure Humidity
    00:00 +3°C° 0.2 mm 6 mps 749 mmHg 83%
    01:00 +3°C° 0.2 mm 5 mps 749 mmHg 84%
    02:00 +3°C° 0.1 mm 5 mps 749 mmHg 84%
    03:00 +2°C° 0.1 mm 5 mps 748 mmHg 85%
    04:00 +2°C° 0.1 mm 5 mps 748 mmHg 86%
    05:00 +2°C° 0.1 mm 5 mps 747 mmHg 86%
    06:00 +2°C° 0.1 mm 5 mps 747 mmHg 86%
    07:00 +2°C° 0.1 mm 5 mps 747 mmHg 86%
    08:00 +2°C° 0.4 mm 5 mps 746 mmHg 85%
    09:00 +2°C° 0.4 mm 5 mps 746 mmHg 85%
    10:00 +2°C° 0.4 mm 5 mps 746 mmHg 84%
    11:00 +2°C° 0.6 mm 5 mps 745 mmHg 83%
    12:00 +3°C° 0.6 mm 5 mps 744 mmHg 82%
    13:00 +3°C° 0.6 mm 5 mps 744 mmHg 81%
    14:00 +3°C° 0.4 mm 5 mps 743 mmHg 81%
    15:00 +3°C° 0.4 mm 5 mps 742 mmHg 81%
    16:00 +3°C° 0.4 mm 5 mps 742 mmHg 80%
    17:00 +3°C° 0.2 mm 5 mps 742 mmHg 81%
    18:00 +3°C° 0.2 mm 5 mps 742 mmHg 82%
    19:00 +3°C° 0.2 mm 5 mps 741 mmHg 83%
    20:00 +3°C° 0.1 mm 5 mps 741 mmHg 84%
    21:00 +3°C° 0.1 mm 5 mps 741 mmHg 85%
    22:00 +3°C° 0.1 mm 5 mps 742 mmHg 86%
    23:00 +4°C° 0 mm 4 mps 742 mmHg 87%
    Show more